Regional Weather Roundup
Issued by NWS

Home | Current Version | Previous Version | Text Only | Print | Product List | Glossary On
Versions: 1 2 3 4 5 6 7 8 9 10 11 12 13 14 15 16 17 18 19 20 21 22 23 24 25 26 27 28
000
ASUS45 KREV 251910
RWRNV
NEVADA REGIONAL WEATHER ROUNDUP
NATIONAL WEATHER SERVICE RENO NV
1200 PM PDT SAT OCT 25 2014

NOTE: "FAIR" INDICATES FEW OR NO CLOUDS BELOW 12,000 FEET WITH NO
SIGNIFICANT WEATHER AND/OR OBSTRUCTIONS TO VISIBILITY.

NVZ001-003-004-252000-
WESTERN NEVADA

CITY           SKY/WX    TMP DP  RH WIND       PRES   REMARKS
RENO           MOSUNNY   66  32  28 S31G43    29.95R
CARSON CITY    FAIR      64  25  22 SW17G32   29.95F
MINDEN         FAIR      66  25  20 S22G37    29.98
SLIDE MTN        N/A     36  28  75 SW51        N/A
FALLON         MOSUNNY   75  18  11 SW22G30   29.90F
LOVELOCK       SUNNY     73  24  16 SW25G33   29.91F
HAWTHORNE      SUNNY     75  14   9 S28G39    29.94F
$$

NVZ002-CAZ072-073-252000-
NORTHERN AND CENTRAL SIERRA

CITY           SKY/WX    TMP DP  RH WIND       PRES   REMARKS
S. LAKE TAHOE  LGT RAIN  55  27  34 S23G39    30.03S
TRUCKEE        PTSUNNY   54  37  54 SW15G30   30.05R
SQUAW VLY 8000 NOT AVBL
SUSANVILLE     LGT RAIN  48  37  66 S24G38    29.99F
BLUE CANYON    RAIN      40  36  86 S16G32    30.14R FOG
MAMMOTH LAKES  FAIR      61   9  12 S28G45    30.12F
BRIDGEPORT     FAIR      58  16  19 SW23G37   30.06F
$$

NVZ030-031-036-252000-
NORTHERN NEVADA

CITY           SKY/WX    TMP DP  RH WIND       PRES   REMARKS
ELKO           CLOUDY    71  31  22 SW23G38   29.96F HAZE
WINNEMUCCA     MOSUNNY   74  20  13 S21G31    29.89S
WENDOVER       SUNNY     64  34  32 E5        30.00F
$$

NVZ035-037-252000-
CENTRAL NEVADA

CITY           SKY/WX    TMP DP  RH WIND       PRES   REMARKS
ELY            MOSUNNY   68  33  27 SE29G40   30.11F
EUREKA           N/A     69  28  21 S28G37    30.04F
$$

NVZ013-014-252000-
SOUTH CENTRAL NEVADA

CITY           SKY/WX    TMP DP  RH WIND       PRES   REMARKS
TONOPAH        MOSUNNY   67  30  25 S25G32    30.09S
$$

NVZ017-020-022-252000-
SOUTHERN NEVADA

CITY           SKY/WX    TMP DP  RH WIND       PRES   REMARKS
LAS VEGAS      MOSUNNY   82  40  22 S18G28    30.00F
N. LAS VEGAS   MOSUNNY   83  39  21 S15       30.02F
NELLIS AFB     SUNNY     83  43  24 S15       30.01F
HENDERSON      SUNNY     82  41  23 S17       30.06F
MERCURY        MOSUNNY   78  38  23 S23G30    30.07F
$$



USA.gov is the U.S. government's official web portal to all federal, state and local government web resources and services.